STARLINK-5684, 55453

Orbit data source: Space-Track

STARLINK-5684, 55453 is a payload satellite owned by SpaceX/Seattle (US) in LEO that was launched on Thu, 02 Feb 2023 UTC via an FALCON 9 launch vehicle from the Air Force Eastern Test Range (AFETR). Payload-class satellites include a variety of spacecraft equipped with specific instruments for various scientific and technological missions. These include communications satellites like Starlink; space stations such as the ISS; scientific satellites like the Hubble; Earth observation satellites from companies like Planet Labs, Umbra, and HawkEye 360; GPS; miniature CubeSats for education and research; and military/defense satellites.

Loading next visibility...
Identifier
55453, 2023-015E
Orbit
LEO
Country
Flag of USUS
Related business
Manufacturer
SpaceX/Seattle
Mission
Operational Commercial Communications
Bus & Motor
STARLINK, Unknown motor
Mass
305 kg wet, ~290 kg dry
Launch date (UTC)
2023-02-02 (4 years ago)
Launch vehicle
FALCON 9
Launch site
Air Force Eastern Test Range (AFETR)
Object type
Payload
Rocket body
Debris
Shape & HBR
Box + 1 Pan, 10.1 m
Radar Cross Section
13.562 m², Large (>1 m²)

Expand to show TLE details & history
Last TLE update: 7 hours ago

TLE from 7 hours ago
0 STARLINK-5684
1 55453U 23015E   26258.50332630  .00001357  00000-0  58843-4 0  9996
2 55453  43.0027 336.5865 0001518 278.0879  81.9800 15.27579000199755
Epoch: 2026-09-15T12:04Z
TLE epoch observation values (Epoch: 2026-09-15T12:04:47.392Z)
Latitude
-0.00004°
Longitude
160.92065°
Altitude
482.683 km
Speed
7.626 km/s
True Right ascension
22h 26m 20s
True Declination
0° 00' 00"
Sunlit
Object was in full shadow at epoch
Visualization orbit readout
Latitude
Unknown
Longitude
Unknown
Altitude
Unknown
Speed
Unknown
Apparent Right ascension
Unknown
Apparent Declination
Unknown
Sunlit
N/A
Visualization observer readout
Local Sidereal Time
11:21:56
Azimuth
Unknown
Elevation
Unknown
Doppler factor
Unknown
Orbital elements
Apogee altitude
486.039 km
Perigee altitude
483.955 km
Semi-major axis
6,863.134 km
Eccentricity
0.00015
Inclination
43.0027°
RAAN
336.5865°
Arg. of periapsis
278.0879°
True anomaly
81.99723°
Mean anomaly
81.98°
Eccentric anomaly
81.98861°
Mean motion
3.81733 °/min
Orbital period
94.31 mins
BSTAR
0.000058843
Loading maneuver chart data...
Computing Atmospheric mass density...
Loading historical data...
Loading historical data...
Loading historical data...
Loading historical data...
Loading historical data...
Loading historical data...
Loading historical data...

Documentation

Showing up to 5 results
|